Location: Unspecified
(41.5000°N, 0.0000°E)
Time: 07:52:45
(UTC+00:00)

deb Explorer IX - Pass Details

Date: 06 October 2020
Orbit: 537 x 1106 km, 38.8° (Epoch: 19 October)

Event Time Altitude Azimuth Distance (km) Brightness Sun altitude
Rises 19:04:02 0° 275° (W) 3,096 ? -17.9°
Reaches altitude 10° 19:06:54 10° 263° (W) 2,076 ? -18.4°
Maximum altitude 19:10:46 25° 208° (SSW) 1,228 ? -19.1°
Enters shadow 19:12:52 18° 168° (SSE) 1,470 ? -19.5°
